Date String (YYYY-MM-DD hh:mm:ss) UTC,Instrument flags,Ambient pressure (hPa),Sample flow (lpm),Bypass flow (lpm),Sample temperature (°C),Ambient temperature (°C),ASC tube jacket temperature (°C),LED temperature (°C),Box temperature (°C),Sample RH (%),Span deviation,Mass concentration (μg/m³),Mass concentration (μg/m³),Mass concentration (μg/m³)
DateTimeUTC,F1_M11,P_M11,Q1_M11,Q2_M11,T1_M11,T2_M11,T3_M11,T4_M11,T5_M11,U1_M11,ZSPAN_M11,X0_M11,X2_M11,X1_M11
2023-01-04 12:00:00,,0818.5,4.99,0.00,22.7,22.6,00.0,31.3,24.5,07.7,0000.0,0002.54,0001.90,0001.73
2023-01-04 12:01:00,,0818.5,4.99,0.00,22.6,22.0,00.0,31.4,24.4,07.9,0000.0,0002.84,0002.22,0002.04
2023-01-04 12:02:00,,0818.5,5.00,0.00,22.6,21.6,00.0,31.4,24.3,07.8,0000.0,0003.14,0002.54,0002.38
2023-01-04 12:03:00,,0818.5,5.01,0.00,22.6,21.3,00.0,31.4,24.2,07.7,0000.0,0003.38,0002.73,0002.56
2023-01-04 12:04:00,,0818.7,5.00,0.00,22.5,21.1,00.0,31.4,24.1,07.6,0000.0,0003.55,0002.88,0002.70
2023-01-04 12:05:00,,0818.5,5.00,0.00,22.5,20.9,00.0,31.4,24.1,07.5,0000.0,0003.62,0002.98,0002.82
2023-01-04 12:06:00,,0818.4,5.01,0.00,22.5,20.9,00.0,31.4,24.1,07.3,0000.0,0003.67,0003.04,0002.89
2023-01-04 12:07:00,,0818.4,5.00,0.00,22.4,20.8,00.0,31.3,24.1,07.1,0000.0,0003.51,0003.01,0002.88
2023-01-04 12:08:00,,0818.5,5.00,0.00,22.4,20.7,00.0,31.3,24.0,07.4,0000.0,0003.43,0003.04,0002.93
2023-01-04 12:09:00,,0818.5,5.00,0.00,22.3,20.3,00.0,31.3,23.8,07.6,0000.0,0003.54,0003.11,0003.01
2023-01-04 12:10:00,,0818.5,5.00,0.00,22.3,20.3,00.0,31.3,23.8,07.7,0000.0,0003.75,0003.21,0003.13
2023-01-04 12:11:00,,0818.5,5.00,0.00,22.2,20.3,00.0,31.2,23.8,07.5,0000.0,0003.91,0003.26,0003.17
2023-01-04 12:12:00,,0818.6,5.01,0.00,22.2,20.6,00.0,31.2,23.9,07.5,0000.0,0003.59,0003.02,0002.85
2023-01-04 12:13:00,,0818.7,5.00,0.00,22.3,21.7,00.0,31.2,24.1,07.6,0000.0,0003.33,0002.72,0002.53
2023-01-04 12:14:00,,0818.7,5.01,0.00,22.5,22.8,00.0,31.2,24.4,07.6,0000.0,0003.91,0002.66,0002.45
2023-01-04 12:15:00,,0818.7,4.99,0.00,22.6,23.1,00.0,31.2,24.6,07.7,0000.0,0004.39,0002.79,0002.59
2023-01-04 12:16:00,,0818.6,4.99,0.00,22.6,22.6,00.0,31.3,24.5,08.1,0000.0,0005.77,0003.69,0003.55
2023-01-04 12:17:00,,0818.7,5.00,0.00,22.6,22.2,00.0,31.3,24.4,07.6,0000.0,0006.29,0003.96,0003.83
2023-01-04 12:18:00,,0818.8,5.01,0.00,22.6,21.8,00.0,31.3,24.4,08.0,0000.0,0007.39,0004.63,0004.48
2023-01-04 12:19:00,,0818.8,4.99,0.00,22.6,21.6,00.0,31.3,24.3,07.6,0000.0,0007.94,0005.12,0005.00
2023-01-04 12:20:00,,0818.7,5.00,0.00,22.6,21.4,00.0,31.3,24.3,07.4,0000.0,0008.32,0005.37,0005.24
2023-01-04 12:21:00,,0818.7,5.01,0.00,22.6,21.3,00.0,31.3,24.3,07.3,0000.0,0008.52,0005.52,0005.39
2023-01-04 12:22:00,,0818.8,5.01,0.00,22.5,21.1,00.0,31.3,24.2,07.7,0000.0,0008.97,0005.98,0005.85
2023-01-04 12:23:00,,0818.7,5.00,0.00,22.5,21.0,00.0,31.3,24.1,07.4,0000.0,0009.29,0006.27,0006.14
2023-01-04 12:24:00,,0818.8,5.00,0.00,22.4,20.8,00.0,31.3,24.0,06.8,0000.0,0009.41,0006.21,0006.10
2023-01-04 12:25:00,,0818.7,4.99,0.00,22.4,20.5,00.0,31.3,23.9,06.9,0000.0,0009.07,0006.12,0006.00
2023-01-04 12:26:00,,0818.8,5.01,0.00,22.3,20.3,00.0,31.3,23.8,07.2,0000.0,0008.88,0006.08,0005.97
2023-01-04 12:27:00,,0818.7,5.00,0.00,22.2,20.3,00.0,31.3,23.7,07.8,0000.0,0008.59,0005.82,0005.70
2023-01-04 12:28:00,,0818.9,5.01,0.00,22.2,20.4,00.0,31.2,23.7,08.1,0000.0,0009.02,0006.23,0006.11
2023-01-04 12:29:00,,0818.7,5.00,0.00,22.3,21.4,00.0,31.2,24.0,07.6,0000.0,0008.66,0005.86,0005.74
2023-01-04 12:30:00,,0818.8,5.01,0.00,22.4,22.4,00.0,31.2,24.3,07.3,0000.0,0008.35,0005.51,0005.39
2023-01-04 12:31:00,,0819.0,4.99,0.00,22.5,22.6,00.0,31.2,24.4,07.5,0000.0,0008.25,0005.56,0005.43
2023-01-04 12:32:00,,0819.0,4.99,0.00,22.5,22.1,00.0,31.2,24.3,07.5,0000.0,0008.46,0005.74,0005.63
2023-01-04 12:33:00,,0818.9,5.00,0.00,22.5,21.6,00.0,31.3,24.2,07.8,0000.0,0008.50,0005.78,0005.66
2023-01-04 12:34:00,,0819.0,4.99,0.00,22.4,21.3,00.0,31.3,24.1,07.8,0000.0,0008.73,0005.99,0005.85
2023-01-04 12:35:00,,0818.9,5.01,0.00,22.4,21.1,00.0,31.3,24.0,07.8,0000.0,0009.14,0006.48,0006.33
2023-01-04 12:36:00,,0819.0,5.01,0.00,22.4,20.9,00.0,31.2,24.0,07.4,0000.0,0009.32,0006.75,0006.61
2023-01-04 12:37:00,,0819.0,5.00,0.00,22.3,20.6,00.0,31.2,23.9,07.3,0000.0,0009.36,0006.78,0006.65
2023-01-04 12:38:00,,0819.0,5.00,0.00,22.3,20.4,00.0,31.2,23.8,07.3,0000.0,0009.74,0006.51,0006.38
2023-01-04 12:39:00,,0819.0,5.00,0.00,22.2,20.4,00.0,31.2,23.8,07.2,0000.0,0009.34,0006.01,0005.87
2023-01-04 12:40:00,,0819.0,4.99,0.00,22.2,20.3,00.0,31.2,23.8,07.1,0000.0,0009.12,0005.78,0005.63
2023-01-04 12:41:00,,0819.1,5.00,0.00,22.1,20.1,00.0,31.2,23.6,07.1,0000.0,0009.06,0005.72,0005.55
2023-01-04 12:42:00,,0819.0,5.02,0.00,22.1,20.9,00.0,31.1,23.8,07.1,0000.0,0009.05,0005.54,0005.39
2023-01-04 12:43:00,,0819.0,5.00,0.00,22.2,21.9,00.0,31.0,24.1,06.9,0000.0,0009.01,0005.25,0005.10
2023-01-04 12:44:00,,0819.1,5.00,0.00,22.4,22.6,00.0,31.1,24.3,06.9,0000.0,0008.57,0004.84,0004.71
2023-01-04 12:45:00,,0819.1,4.99,0.00,22.4,22.1,00.0,31.1,24.2,07.0,0000.0,0009.13,0004.48,0004.34
2023-01-04 12:46:00,,0819.1,5.00,0.00,22.4,21.5,00.0,31.1,24.0,07.0,0000.0,0008.84,0004.14,0004.01
2023-01-04 12:47:00,,0819.1,5.00,0.00,22.3,20.9,00.0,31.1,23.8,06.9,0000.0,0008.57,0003.93,0003.78
2023-01-04 12:48:00,,0819.2,5.00,0.00,22.2,20.6,00.0,31.1,23.7,07.0,0000.0,0008.44,0003.83,0003.69
2023-01-04 12:49:00,,0819.2,4.99,0.00,22.1,20.3,00.0,31.1,23.6,07.1,0000.0,0007.93,0003.72,0003.58
2023-01-04 12:50:00,,0819.2,5.00,0.00,22.1,20.1,00.0,31.1,23.5,07.1,0000.0,0007.53,0003.61,0003.47
2023-01-04 12:51:00,,0819.2,5.02,0.00,22.0,20.0,00.0,31.0,23.5,07.0,0000.0,0007.51,0003.60,0003.46
2023-01-04 12:52:00,,0819.3,5.00,0.00,22.0,20.0,00.0,31.0,23.4,07.0,0000.0,0007.53,0003.58,0003.45
2023-01-04 12:53:00,,0819.3,4.99,0.00,21.9,20.0,00.0,31.0,23.4,06.8,0000.0,0007.30,0003.44,0003.32
2023-01-04 12:54:00,,0819.3,5.00,0.00,22.0,21.2,00.0,30.9,23.7,06.9,0000.0,0006.37,0003.36,0003.24
2023-01-04 12:55:00,,0819.3,5.01,0.00,22.1,22.3,00.0,30.9,24.0,06.9,0000.0,0006.32,0003.31,0003.19
2023-01-04 12:56:00,,0819.2,4.99,0.00,22.2,22.7,00.0,30.9,24.2,06.7,0000.0,0004.53,0003.17,0003.00
2023-01-04 12:57:00,,0819.2,4.98,0.00,22.3,22.2,00.0,31.0,24.1,06.7,0000.0,0003.81,0002.91,0002.67
2023-01-04 12:58:00,,0819.3,5.00,0.00,22.2,21.6,00.0,31.0,23.9,06.8,0000.0,0003.70,0002.79,0002.56
2023-01-04 12:59:00,,0819.3,5.00,0.00,22.2,21.0,00.0,31.0,23.7,06.9,0000.0,0003.94,0002.90,0002.64
